KUIPER-00541

导读

KUIPER-00541(NORAD编号69610)是亚马逊“柯伊伯计划”(Project Kuiper)低轨互联网星座的组网卫星,隶属于亚马逊全球卫星宽带基础设施项目,核心功能是提供全球范围内的高速互联网接入服务。 该卫星推测于2025年-2026年上半年随柯伊伯计划批次发射任务进入近地轨道,目前处于在轨运行状态,将与后续部署的数千颗同系列卫星组网,为地面偏远地区、移动终端等场景提供低时延、高带宽的网络通信支撑,助力亚马逊太空互联网商业化落地。

Basic Information
目录编号:
69610
目录名称:
KUIPER-00541
国际标识:
2026-140U
轨道中心:
EARTH
卫星名称:
KUIPER-00541
卫星全名:
KUIPER-00541
卫星状态:
在轨 (已飞行70 天)
发射日期:
2026-06-17 UTC
国别 :
美国 (US)
星等 :
--
Orbit Information
数据来源 国际轨道数据
星历时间: 2026-08-26T05:41:26+0800
13小时前
查看轨道信息
半长轴: 6832.049km
偏心率: 0.0008291
轨道倾角: 51.882°
近地点辐角 104.708°
升交点赤经 61.281°
平近点角 255.482°
近地点: 448.247km
远地点: 459.577km
周期: 93.667分钟
每日圈数: 15.373626
Detailed Information
使用方式:
暂无
2D Orbit Map
3D Orbit Map
Orbit Altitude Analysis Chart
Orbit Inclination Analysis Chart
Orbit Comprehensive Analysis Chart
View Comprehensive Chart